Lapse_Rate
5.1 5.9 6.9 7.3 6.5 6.5 6.5 6.5 6.5 6.5 6.5 6.1 6.4 6.8 6.5 6.5 6.5 6.5 5.9 6.5 5.3 3.6 3.1 3.7 4.8 5.8 6.4 6.5 6.4 6.7 6.3 6.5 6.5 6.3 6.2 6.2 6.1 6.1 6.0 6.1 6.6 7.0 6.7 6.2 6.1 5.8 5.5 5.5 5.1
6.1 9.0 7.3 6.2 6.5 6.5 6.5 6.5 6.5 6.5 6.5 5.5 5.3 5.8 6.5 6.5 7.0 5.9 6.5 7.2 4.5 2.8 1.8 3.8 5.1 6.1 6.0 6.1 6.3 6.6 6.7 6.7 6.7 6.5 6.4 6.5 6.3 5.9 5.4 6.0 6.7 7.1 6.4 6.0 5.8 5.6 5.5 5.3 5.0
5.2 8.9 6.4 6.5 6.5 6.5 6.5 6.5 6.5 6.3 5.7 6.2 5.6 5.4 6.2 6.3 7.1 4.9 6.4 7.2 3.1 1.1 0.6 3.9 4.8 5.6 6.0 6.1 6.0 6.1 6.5 6.7 6.6 6.4 6.3 6.0 6.0 5.9 5.4 5.7 6.4 6.6 5.9 5.8 5.6 5.5 5.4 5.3 5.1
6.8 7.0 6.3 6.5 6.5 6.5 6.5 6.5 6.5 6.5 6.3 6.2 5.9 6.5 3.6 4.4 3.7 5.6 5.1 4.2 2.1 0.6 0.3 4.6 4.0 4.3 5.6 5.7 5.8 5.8 5.8 6.5 6.4 6.1 6.0 6.1 6.1 5.7 5.3 5.3 5.7 6.2 5.9 5.7 5.8 5.5 5.4 5.2 5.1
7.1 5.8 6.5 6.5 6.5 6.5 6.5 6.3 6.3 6.5 6.0 6.0 6.0 6.2 4.5 3.2 3.1 3.8 2.9 3.4 1.1 0.5 0.3 1.7 3.3 3.4 3.9 4.5 4.8 4.9 5.1 5.2 5.1 5.6 6.0 6.1 5.9 4.8 4.6 4.8 5.2 5.8 5.8 5.7 5.8 5.8 5.5 5.3 5.2
5.8 5.6 6.5 6.5 6.5 6.5 6.5 6.0 5.9 6.3 5.8 5.7 6.2 5.8 2.5 2.5 3.3 4.1 2.5 0.7 0.0 -0.2 -0.0 -0.1 0.1 1.0 1.8 2.5 3.0 2.8 3.1 3.3 3.9 4.0 3.9 4.0 4.2 3.9 3.7 3.7 4.5 5.4 5.8 5.8 5.7 5.5 5.7 5.4 5.4
6.5 6.5 6.5 6.5 6.5 6.5 6.5 5.9 6.5 6.5 6.3 6.3 6.0 6.5 2.6 4.0 3.7 2.5 -0.4 0.2 -1.1 -2.0 -0.4 -0.5 -1.4 -1.5 -1.5 0.1 0.1 0.7 1.2 1.2 1.6 2.4 3.0 3.3 3.1 3.1 3.2 2.6 2.8 3.7 4.4 4.8 5.7 5.5 5.3 5.5 5.3
6.1 6.5 6.5 6.5 6.5 6.5 6.1 5.1 4.7 5.7 6.3 6.5 5.3 6.5 6.1 3.5 4.6 2.1 0.2 -0.9 -2.1 -2.7 -1.2 -0.8 -2.0 -2.4 -2.2 -2.5 -1.1 -0.7 -0.6 -0.4 0.5 1.0 1.8 3.0 3.1 2.1 1.6 1.4 1.5 2.1 2.8 3.6 4.0 5.5 5.6 5.2 5.1
7.1 6.5 6.5 6.5 6.5 6.5 5.4 6.5 5.6 5.4 5.3 6.3 3.8 2.5 4.6 3.9 3.3 2.9 1.0 -0.2 -3.2 -2.8 -3.2 -1.1 -1.4 -3.1 -1.6 -2.0 -2.6 -2.1 -1.3 -0.5 -0.3 -0.1 0.5 2.8 3.5 2.7 1.0 0.5 1.0 1.5 2.4 3.3 4.0 4.5 5.7 5.2 5.0
6.5 6.5 6.5 6.5 6.5 6.5 6.1 6.4 5.5 6.2 6.0 6.3 5.2 3.7 3.6 3.5 3.4 2.7 3.8 2.2 0.1 -2.9 -3.5 -2.1 -1.2 -2.7 -3.2 -1.3 -2.3 -2.4 -1.9 -1.9 -1.1 -1.2 -1.0 -0.8 0.7 1.3 2.4 2.1 1.9 2.5 2.9 3.4 4.5 5.1 5.6 5.9 5.5
6.1 6.5 6.5 6.4 6.3 6.3 6.3 6.4 6.6 6.3 6.5 5.6 5.1 2.8 3.4 3.1 3.2 4.1 4.5 4.1 2.9 0.5 -1.8 -2.3 -1.6 -3.1 -2.2 -1.9 -2.2 -2.8 -2.6 -2.0 -2.2 -1.7 -1.3 -1.2 -0.8 0.2 0.6 2.4 2.8 2.4 1.8 3.5 5.0 6.5 6.0 7.0 6.9
6.5 6.3 6.3 6.4 5.9 6.5 6.5 6.7 6.3 6.3 5.9 4.8 5.2 1.2 2.4 3.9 3.9 4.0 4.8 5.3 5.3 4.0 1.2 1.1 0.2 -4.0 -1.9 -3.4 -2.6 -3.3 -3.3 -2.7 -2.2 -2.3 -1.8 -0.9 -1.3 -0.8 -0.6 -0.0 0.4 0.9 0.6 0.3 1.8 3.5 6.2 6.5 6.8
6.5 6.5 6.3 6.5 5.8 6.8 6.7 6.5 6.4 6.3 4.7 5.2 3.9 3.8 3.2 4.3 5.6 6.3 6.3 5.2 3.6 1.7 1.0 0.9 -0.1 -0.3 -0.6 -1.5 -1.2 -1.5 -3.5 -3.8 -2.7 -2.5 -1.6 -1.4 -1.0 -0.9 -0.7 -0.6 -0.2 0.1 0.7 0.6 0.8 1.3 2.5 4.9 6.4
6.5 6.3 6.2 6.3 6.7 6.7 6.5 6.4 6.1 6.1 5.4 6.4 5.7 5.4 5.6 5.6 6.2 6.6 5.6 5.2 5.2 4.0 2.8 1.4 -0.1 -0.1 -0.6 -1.5 -0.5 -1.1 -1.4 -2.2 -3.4 -3.7 -1.6 -0.9 -0.6 -0.4 -0.3 -0.3 -0.5 -0.5 0.4 0.9 1.5 2.0 1.9 2.2 3.5
6.6 6.5 6.5 6.5 6.2 6.5 6.4 6.5 6.5 6.0 6.7 6.5 6.8 6.7 6.7 6.7 6.7 6.2 5.2 5.0 4.9 3.4 2.6 1.8 1.2 0.9 0.3 -0.3 -0.4 -0.1 0.9 -0.1 -1.0 -1.9 -0.6 -1.3 -1.3 -0.4 -0.2 -0.2 -1.3 -0.7 0.3 0.7 1.1 2.1 2.6 3.7 3.6
6.5 6.5 6.5 6.5 6.5 6.3 6.3 6.5 6.5 6.0 6.4 5.8 6.3 6.5 6.6 6.8 6.9 6.0 5.3 4.9 4.3 3.5 2.6 2.7 2.4 1.0 0.3 0.1 -0.3 0.7 1.2 -0.4 -1.1 -1.3 -1.7 -2.1 -2.2 -1.4 -0.3 -0.6 -0.8 -0.1 -0.1 -0.1 -0.1 0.6 1.4 2.2 2.5
6.5 6.5 6.5 6.5 6.5 6.5 6.5 6.5 6.5 6.9 6.7 5.9 5.5 5.8 6.6 6.4 6.7 6.1 5.9 5.1 3.7 3.5 2.9 2.0 1.7 0.8 0.5 0.4 0.4 0.8 1.0 -0.2 -0.2 -1.5 -2.0 -1.8 -2.3 -1.9 -1.5 -1.2 -1.5 -0.8 -0.7 -1.1 -0.8 -0.6 0.2 0.1 0.2
6.5 6.5 6.5 6.5 6.5 6.5 6.5 6.5 6.5 6.2 6.2 6.3 5.5 5.4 5.9 6.2 6.8 6.4 5.9 5.9 4.6 3.7 2.3 2.3 1.9 1.3 0.8 1.0 1.1 1.1 0.6 -0.0 -0.8 -1.2 -1.2 -1.4 -1.5 -1.4 -1.5 -1.3 -1.7 -1.3 -1.9 -2.0 -1.7 -1.4 -1.3 -0.9 -1.8
6.5 6.5 6.5 6.5 6.5 6.5 6.5 6.5 6.5 6.1 5.7 5.4 5.4 6.0 5.8 6.0 6.7 6.0 6.2 5.6 4.4 3.1 2.6 2.2 1.4 1.6 1.4 1.5 1.8 1.9 1.3 0.6 -0.3 -0.5 -0.6 -1.0 -1.3 -0.9 -1.1 -1.7 -1.1 -0.6 -2.0 -1.6 -0.7 -1.3 -0.7 -1.8 -2.3
6.5 6.5 6.5 6.5 6.5 6.5 6.5 6.5 6.5 6.5 6.2 5.9 5.8 5.5 5.0 6.0 6.6 6.3 5.7 5.7 4.7 3.5 2.5 2.1 2.5 2.5 2.7 2.2 1.3 1.4 1.3 0.6 0.5 -0.1 -0.6 -0.5 -0.9 -1.0 -0.3 -0.9 -1.5 -1.5 -1.5 -1.3 -1.2 -1.4 -1.6 -1.0 -1.9
6.5 6.5 6.5 6.5 6.5 6.5 6.5 6.5 6.5 6.5 6.2 6.7 6.7 6.4 6.5 5.8 5.9 6.5 4.5 5.2 4.9 4.2 3.0 2.5 2.1 2.5 2.1 2.0 1.7 1.4 1.6 1.7 1.2 0.3 -0.8 -0.6 -0.4 -0.6 -0.7 -0.5 -0.2 -0.5 -1.0 -1.0 -1.4 -2.6 -1.7 -1.7 -1.4
6.5 6.5 6.5 6.5 6.5 6.5 6.5 6.5 6.5 6.5 6.5 6.5 5.9 5.6 5.9 5.7 5.4 6.6 4.5 3.1 4.8 4.7 3.9 3.0 2.5 2.0 2.6 2.6 2.4 2.4 2.7 1.7 1.0 0.4 0.1 0.1 0.4 -0.2 -0.4 -0.2 -0.2 -0.5 -0.4 -1.3 -0.6 0.2 -1.4 -1.1 -1.1
6.5 6.5 6.5 6.5 6.5 6.5 6.5 6.5 6.5 6.5 6.5 6.5 5.5 5.7 6.0 6.4 6.1 4.6 6.3 3.5 3.2 3.1 3.0 2.2 2.4 1.9 2.3 2.4 3.0 2.2 1.7 1.4 1.4 1.1 0.8 0.4 0.6 0.5 0.2 0.2 0.2 -0.2 -0.6 -0.7 -1.1 -1.3 -1.2 -0.6 -0.9
6.5 6.5 6.5 6.5 6.5 6.5 6.5 6.5 6.5 6.5 6.5 6.5 5.3 5.6 5.9 5.8 6.3 6.1 6.8 3.4 2.8 3.0 2.6 2.4 0.7 0.6 0.6 1.6 2.5 2.7 2.3 2.1 1.7 2.2 1.5 1.2 0.8 0.5 0.9 1.2 0.9 0.6 -0.1 -0.6 -0.7 -0.2 -0.5 -0.5 -0.3
6.5 6.5 6.5 6.5 6.5 6.5 6.5 6.5 6.5 6.5 6.5 6.5 6.5 6.7 6.6 5.4 5.7 5.8 6.3 3.7 2.4 3.3 3.7 1.6 0.4 -0.4 -1.2 -0.5 1.7 2.3 2.7 2.7 2.4 2.1 1.8 1.9 1.4 0.4 0.4 0.8 0.4 0.1 0.5 0.4 0.3 -0.1 -0.1 0.1 -0.1
6.5 6.5 6.5 6.5 6.5 6.5 6.5 6.5 6.5 6.5 5.9 6.0 5.8 6.7 7.1 5.2 6.5 5.0 5.5 4.0 2.7 3.2 3.0 2.4 1.9 0.7 -0.9 -1.5 -0.3 1.5 2.2 1.9 2.1 2.3 2.0 1.4 0.9 0.6 1.5 1.3 1.3 1.1 1.0 0.9 0.8 0.3 0.6 0.9 0.3
6.5 6.5 6.5 6.5 6.5 6.5 6.5 6.5 6.5 6.5 6.5 5.9 6.2 6.9 6.5 6.6 7.0 5.9 5.5 5.9 4.2 3.5 2.4 1.7 1.3 0.4 0.6 0.6 -0.8 0.1 1.9 2.1 1.7 2.0 2.1 1.5 1.8 2.7 1.7 1.8 1.3 1.4 1.4 1.3 1.2 0.5 1.0 0.8 0.9
6.5 6.5 6.5 6.5 6.5 6.5 6.5 6.5 6.5 6.5 6.5 6.5 6.5 6.6 6.6 6.2 5.6 7.4 6.6 5.6 4.6 3.6 2.6 2.2 0.6 -1.0 -0.9 -0.3 0.1 0.6 0.4 2.2 2.3 2.1 2.1 1.7 1.3 1.8 1.6 1.6 1.7 1.7 1.8 1.8 1.6 1.2 1.9 1.8 1.6
6.5 6.5 6.5 6.5 6.5 6.5 6.5 6.5 6.5 6.5 6.5 6.5 6.5 6.6 6.3 5.8 5.9 6.5 7.1 5.4 3.7 3.5 2.5 1.3 0.4 -0.9 -1.1 -1.6 -1.3 -0.7 0.2 1.1 2.3 2.3 2.1 2.0 1.8 1.5 1.3 1.8 1.7 2.0 1.9 2.1 1.7 1.7 2.3 2.5 2.5
6.5 6.5 6.5 6.5 6.5 6.5 6.5 6.5 6.5 6.5 5.8 6.3 5.0 6.7 6.6 6.7 5.9 5.9 5.6 6.1 4.4 2.9 2.7 2.2 1.9 0.9 -0.5 -1.3 -1.2 -1.8 -1.8 -0.5 0.8 1.8 2.4 2.4 1.8 2.0 1.7 2.0 2.0 2.1 2.2 2.1 2.0 1.9 1.9 2.2 2.4
Wind_Speed
9 9 5 2 2 2 8 7 14 12 6 5 5 2 3 5 2 1 2 5 12 9 12 13 11 3 14 14 12 14 15 16 16 14 14 14 14 13 10 9 9 15 16 16 16 16 17 16 15
10 6 2 2 4 5 6 12 15 15 19 5 8 5 1 4 5 7 3 3 10 11 14 12 10 13 15 14 11 12 15 17 15 14 14 14 15 14 12 10 9 15 17 17 16 16 16 16 15
8 10 3 3 5 15 5 13 16 11 14 7 6 2 1 6 6 3 4 9 13 13 16 10 17 9 20 21 20 14 10 14 14 14 16 15 16 14 13 12 10 14 18 17 15 14 15 15 15
5 1 4 9 19 14 16 11 15 16 8 10 9 4 5 3 4 4 7 13 12 12 19 16 22 23 18 21 22 20 23 14 16 17 17 16 17 16 14 14 13 14 16 16 14 13 13 13 13
4 3 6 14 25 15 12 19 20 15 9 6 6 6 6 4 6 7 12 11 12 9 17 23 26 25 24 24 24 22 21 21 21 21 20 19 18 17 15 15 15 11 13 14 13 13 11 11 11
3 3 6 18 13 13 16 14 13 7 9 8 5 7 5 10 10 9 12 13 11 10 12 16 21 24 23 22 23 22 20 20 18 17 17 18 19 17 17 17 16 13 9 11 12 12 10 9 9
7 5 13 13 11 17 12 16 5 3 4 3 4 1 5 8 9 8 13 11 9 11 10 13 15 16 17 21 21 19 18 19 16 14 14 17 16 17 15 15 16 15 12 11 6 10 10 9 8
3 4 14 15 12 16 9 10 11 7 2 3 3 4 5 11 13 11 10 10 6 8 8 9 12 12 12 13 17 16 15 16 15 14 8 12 17 15 15 13 13 13 12 10 8 5 9 9 7
6 4 11 13 11 12 13 3 6 5 7 5 5 4 2 18 14 10 10 8 7 6 6 8 10 10 10 11 12 11 12 12 11 11 14 7 13 12 11 8 7 6 7 6 5 6 7 8 7
6 5 7 7 9 5 11 3 10 4 7 3 5 6 12 13 11 10 10 7 8 8 6 4 7 9 7 8 9 10 9 11 13 12 13 13 14 10 7 6 4 6 8 4 5 5 5 9 8
6 7 7 7 5 8 7 5 4 5 3 7 8 14 11 9 7 7 6 6 5 7 8 5 4 11 8 6 8 10 10 10 11 12 12 12 11 11 11 9 10 13 16 12 9 4 3 4 4
9 10 13 16 5 4 3 4 5 4 4 5 7 18 13 11 9 7 5 6 8 7 9 6 5 9 7 10 7 8 8 10 9 11 12 8 8 9 9 9 13 13 14 13 14 12 7 8 8
14 13 7 2 7 1 4 2 3 3 9 10 14 12 11 9 8 7 6 7 8 8 7 5 6 5 7 7 6 7 9 9 10 11 12 11 8 6 8 8 9 10 10 10 11 12 11 9 7
1 5 11 5 3 3 2 4 4 5 9 9 10 9 8 9 8 7 10 7 8 9 6 5 6 6 8 8 6 7 8 10 8 11 11 10 9 7 6 6 7 8 10 8 7 9 8 7 9
4 4 4 5 7 4 4 6 6 4 5 8 8 9 8 8 9 7 9 8 7 6 7 6 6 8 6 6 7 8 7 9 9 9 7 11 11 8 7 5 6 8 9 9 8 6 8 5 4
3 6 4 9 11 6 5 2 7 6 6 8 9 8 8 7 8 9 9 8 8 7 7 4 6 6 6 6 7 6 5 10 9 9 8 11 12 12 8 6 6 7 8 9 7 3 4 4 4
7 4 10 2 9 6 7 3 4 3 1 6 8 8 7 7 7 9 8 8 9 7 7 6 5 6 6 6 7 6 6 11 6 9 10 10 11 12 10 7 7 8 7 7 4 3 3 3 4
4 6 8 6 4 0 8 3 7 6 6 4 7 8 7 8 6 10 8 7 8 7 7 6 5 5 5 5 6 5 5 8 10 9 9 9 9 10 9 7 8 8 5 4 4 3 2 1 3
2 3 3 9 2 4 8 6 7 6 10 8 7 5 6 8 7 10 9 8 7 7 7 6 6 5 3 1 3 3 3 3 4 8 10 10 12 10 10 8 8 7 4 4 4 2 3 3 4
1 4 6 5 6 2 4 5 12 11 8 10 10 11 10 6 9 9 9 7 6 7 7 7 6 4 2 2 2 3 4 3 4 7 9 10 10 13 10 8 6 8 4 5 5 4 3 2 4
3 3 2 3 4 1 2 3 5 10 14 14 13 11 11 10 7 9 8 8 7 7 7 7 7 5 5 5 3 3 5 3 2 3 3 7 10 10 11 10 8 6 5 3 3 5 6 3 3
5 5 3 2 3 2 3 3 5 10 13 11 9 9 9 10 11 6 8 6 7 6 7 7 6 7 4 3 3 4 3 3 2 3 3 5 8 9 10 9 9 8 7 5 4 4 3 4 4
3 2 3 3 1 3 5 2 4 10 9 8 8 8 8 7 8 10 4 8 7 5 5 7 6 7 4 4 3 4 6 4 3 3 5 4 6 9 8 8 8 7 7 5 5 5 5 3 3
1 3 4 2 2 1 8 6 2 3 2 6 5 6 7 7 8 8 4 6 7 6 6 5 6 6 5 4 5 6 7 5 4 2 3 3 3 5 7 6 6 7 7 5 5 6 5 4 4
1 2 2 0 1 4 6 4 4 4 5 6 7 9 8 7 7 8 2 7 5 6 5 4 6 4 4 5 6 6 6 5 5 3 3 3 2 3 4 6 6 5 6 6 5 4 4 3 3
3 3 2 3 2 2 4 4 4 5 5 6 5 7 10 7 8 8 9 8 7 6 6 5 4 5 4 4 4 4 5 4 3 4 2 3 3 3 4 5 4 5 5 6 6 3 2 1 3
0 1 1 1 3 2 6 3 4 6 7 7 8 10 10 10 9 8 7 4 6 5 6 5 5 3 3 4 3 3 3 4 4 4 2 3 3 2 5 4 4 4 4 4 4 2 2 3 3
1 0 0 2 2 4 4 4 3 5 7 8 9 9 9 8 7 8 7 6 5 5 4 5 4 4 3 3 2 1 2 2 2 2 3 3 3 3 2 3 3 3 3 3 4 3 3 3 3
2 1 2 1 2 1 3 1 2 6 6 6 8 7 6 7 7 7 7 5 4 4 5 3 3 3 2 3 2 2 1 2 1 0 2 2 2 2 1 1 2 2 2 2 2 3 3 3 3
1 1 2 2 3 1 3 1 2 4 3 5 4 8 6 8 5 7 7 7 5 3 3 2 2 2 4 4 3 3 3 2 2 2 3 2 1 1 1 2 2 2 2 2 2 3 4 4 4
Wind_Direction
272 239 228 131 205 202 215 223 230 220 255 290 68 30 195 94 67 190 334 323 58 21 2 350 360 108 152 151 147 144 133 124 122 122 118 113 99 99 89 75 113 113 105 97 90 84 81 80 80
284 202 302 240 231 212 216 223 207 221 205 128 86 324 201 79 82 118 155 57 50 23 352 343 27 132 122 126 135 140 143 131 127 124 120 118 103 93 83 71 109 113 107 103 97 91 85 81 83
267 218 166 214 226 233 232 195 223 229 144 166 121 178 265 126 111 93 92 90 48 21 353 10 56 102 118 107 95 96 129 139 129 116 108 104 98 87 78 70 103 117 116 110 107 101 92 85 83
223 247 281 232 238 227 244 275 192 216 178 172 157 163 86 346 95 174 145 84 62 31 5 43 54 61 94 101 95 91 82 102 108 102 103 100 96 86 70 70 85 109 117 118 114 107 102 91 81
241 209 227 238 244 249 243 223 253 202 153 179 203 160 111 102 108 149 125 96 83 44 28 34 51 53 60 72 77 77 77 79 73 73 79 87 88 79 65 57 64 98 124 125 121 116 112 103 91
198 238 218 234 250 234 255 262 226 188 150 178 192 178 130 130 146 161 102 96 89 74 41 41 45 43 49 57 66 67 67 70 71 77 77 75 74 77 63 50 52 62 107 137 135 129 119 110 101
236 227 239 257 237 233 243 238 201 183 180 115 54 201 104 165 154 113 94 99 101 80 59 50 40 40 35 48 55 58 63 61 60 58 69 80 75 67 65 50 44 50 54 64 143 141 134 123 117
223 260 251 244 256 271 271 225 173 156 153 63 29 182 178 175 145 123 105 102 90 90 69 60 56 33 42 43 44 50 53 59 59 55 52 80 78 68 62 47 35 39 42 52 51 155 146 130 121
246 246 237 240 252 261 287 320 25 92 102 74 36 65 13 133 131 137 135 128 107 83 77 69 74 47 22 46 43 35 43 47 53 44 27 31 71 62 59 60 47 42 48 54 56 71 157 148 141
210 225 240 227 244 345 319 161 126 126 119 128 102 72 114 131 142 149 153 151 147 125 78 31 90 94 39 36 38 29 33 34 42 43 36 31 45 45 76 59 45 25 17 26 58 98 140 175 175
211 246 242 248 8 30 351 0 31 96 270 169 187 150 145 144 148 158 152 143 121 106 110 93 13 77 92 52 46 29 22 33 40 31 45 50 41 26 24 31 30 29 10 15 8 63 46 271 112
256 239 235 269 64 5 348 344 306 161 79 22 24 146 147 158 164 157 153 145 113 115 98 100 101 70 61 83 61 60 30 34 34 31 29 54 61 41 33 25 13 41 17 6 358 4 14 8 355
221 250 277 24 100 313 8 300 286 327 102 83 101 126 148 152 159 146 144 105 100 89 81 108 92 96 107 93 77 78 81 42 30 30 25 42 47 51 45 26 39 36 26 22 357 356 355 354 353
5 318 235 183 152 239 230 250 135 240 115 114 127 139 152 155 158 142 112 113 111 113 121 113 93 80 82 77 76 77 80 82 70 34 14 44 53 54 52 47 23 43 34 4 14 342 339 340 351
352 294 252 190 184 220 167 267 204 199 141 131 143 143 148 157 151 139 123 122 120 118 119 103 105 101 91 83 82 57 75 91 76 69 30 41 36 37 63 64 46 22 26 10 17 2 329 293 347
224 233 233 198 179 147 161 267 40 59 158 150 144 128 137 141 143 122 123 128 114 112 110 109 108 103 89 77 64 84 77 71 48 55 52 41 34 21 44 52 43 21 24 30 20 30 343 347 3
214 228 212 123 160 128 173 246 128 138 173 165 133 127 137 132 129 120 123 124 120 122 113 104 105 107 103 96 94 87 99 89 79 65 43 38 43 34 48 42 34 26 38 37 16 6 14 356 351
242 214 263 158 183 297 189 170 145 147 127 55 100 124 140 138 151 129 121 117 120 116 115 125 108 107 107 127 125 109 72 75 70 59 47 51 39 39 45 40 37 27 45 43 14 18 341 25 340
135 303 345 87 88 178 219 222 152 92 58 69 46 47 140 152 152 127 127 121 119 121 126 121 119 128 130 165 125 134 89 94 79 68 54 51 40 29 40 45 31 19 54 51 21 345 12 16 343
29 268 269 87 106 103 329 93 75 57 55 57 36 18 10 21 132 128 123 128 138 142 140 135 132 151 129 78 46 88 91 67 101 96 62 49 49 30 51 26 29 26 30 34 37 22 347 33 26
218 242 309 356 119 258 317 236 109 66 56 43 30 16 8 356 358 141 133 145 154 155 151 137 139 123 86 94 85 75 87 119 119 96 70 43 62 53 42 36 32 33 38 45 45 29 27 14 16
234 17 49 28 97 207 115 242 110 123 73 56 22 11 2 350 341 352 140 138 157 171 141 122 121 115 122 150 142 169 152 115 82 97 98 70 64 61 46 47 39 36 33 36 20 23 20 26 23
80 332 75 51 97 61 187 100 104 156 30 24 13 4 356 348 333 320 229 148 132 91 118 123 123 98 86 49 88 86 88 95 106 105 108 113 83 68 50 39 42 39 37 34 39 22 19 14 44
121 153 104 121 91 341 204 165 53 33 13 16 357 354 356 348 327 310 259 106 115 104 99 100 95 80 53 57 54 93 117 134 118 136 114 107 103 101 62 50 44 48 41 31 23 6 37 24 15
326 142 139 168 193 219 320 105 80 87 65 62 16 9 8 348 343 328 135 129 111 117 110 98 111 104 61 55 63 67 83 80 103 91 90 89 100 72 56 47 39 44 27 23 19 12 14 23 25
180 126 250 225 187 144 352 119 111 119 86 65 43 18 9 6 1 349 353 140 138 134 126 124 118 117 95 69 48 61 58 89 89 79 76 71 79 84 62 43 36 43 30 18 16 357 352 28 358
105 229 223 298 139 236 127 95 98 92 55 42 24 24 11 16 13 360 10 113 123 126 133 133 125 111 114 113 76 31 66 78 105 94 79 98 84 119 69 43 32 35 20 14 1 340 348 15 349
294 1 242 252 234 213 115 124 108 39 30 27 16 16 5 16 19 30 16 43 76 101 103 121 132 149 155 134 124 119 360 44 73 86 97 90 99 71 37 42 30 17 15 5 354 335 355 18 336
332 278 296 97 192 239 153 101 44 72 37 21 11 1 8 36 26 23 47 48 68 83 85 89 99 129 157 166 177 174 219 309 297 189 129 134 109 94 10 23 357 352 358 339 344 337 292 273 289
279 11 8 95 358 70 156 154 66 91 70 44 355 353 49 37 41 45 39 39 55 87 106 148 174 180 207 202 196 201 201 209 263 236 204 168 183 169 284 322 321 312 327 331 324 315 334 331 317